Location: Unspecified
(43.4680°N, 87.1740°E)
Time: 09:40:07
(UTC+00:00)

NOSS 2-2 (D) - Pass Details

Date: 17 January 2020
Orbit: 485 x 1724 km, 63.3° (Epoch: 03 February)

Event Time Altitude Azimuth Distance (km) Brightness Sun altitude
Exits shadow 23:27:44 24° 174° (S) 1,033 4.8 -23.6°
Maximum altitude 23:29:24 40° 119° (ESE) 736 4.4 -23.3°
Drops below altitude 10° 23:33:01 10° 49° (NE) 1,792 6.5 -22.7°
Sets 23:35:27 0° 42° (NE) 2,799 7.4 -22.2°
